Location: Krakow
(50.0830°N, 19.9170°E)
Time: 03:52:08
(UTC+02:00)

Tiros 1 - Pass Details

Date: 17 February 2023
Orbit: 627 x 662 km, 48.4° (Epoch: 25 March)

Event Time Altitude Azimuth Distance (km) Brightness Sun altitude
Rises 20:01:45 0° 246° (WSW) 2,912 11.2 -29.3°
Reaches altitude 10° 20:04:05 10° 243° (WSW) 2,003 10.2 -29.6°
Enters shadow 20:06:09 26° 234° (SW) 1,252 8.9 -30.0°
Maximum altitude 20:08:36 58° 165° (SSE) 734 - -30.3°
Drops below altitude 10° 20:13:07 10° 86° (E) 2,003 - -31.0°
Sets 20:15:28 0° 83° (E) 2,913 - -31.4°
